When you browse on this site, cookies collect data to enhance your experience and personalize the content and advertising you see.
Visit our Privacy Policy to learn more. By continuing to use the site, you agree to this use of cookies and data.
  • In Romania
  • List of Countries
  • For 7 days
  • Water Temperature
  • Weather Map
  • Weather Widgets
  • user-avatar
    Login

    Hourly Weather Sopron

    Today, 31 May, Sunday

    Time Temperature Precipitation Wind Pressure Humidity
    00:00 +10°C° 0 mm 4 mps 746 mmHg 75%
    01:00 +10°C° 0 mm 4 mps 746 mmHg 76%
    02:00 +10°C° 0 mm 4 mps 746 mmHg 75%
    03:00 +10°C° 0 mm 4 mps 746 mmHg 74%
    04:00 +10°C° 0 mm 4 mps 745 mmHg 72%
    05:00 +10°C° 0 mm 5 mps 745 mmHg 69%
    06:00 +12°C° 0 mm 5 mps 745 mmHg 66%
    07:00 +13°C° 0 mm 6 mps 745 mmHg 62%
    08:00 +13°C° 0.2 mm 6 mps 745 mmHg 67%
    09:00 +11°C° 0.2 mm 6 mps 745 mmHg 71%
    10:00 +11°C° 0.2 mm 7 mps 745 mmHg 75%
    11:00 +10°C° 0.5 mm 7 mps 745 mmHg 78%
    12:00 +10°C° 0.5 mm 7 mps 745 mmHg 81%
    13:00 +10°C° 0.5 mm 7 mps 745 mmHg 84%
    14:00 +9°C° 0.4 mm 7 mps 745 mmHg 85%
    15:00 +9°C° 0.4 mm 8 mps 745 mmHg 86%
    16:00 +9°C° 0.4 mm 8 mps 745 mmHg 87%
    17:00 +9°C° 0.1 mm 7 mps 745 mmHg 87%
    18:00 +9°C° 0.1 mm 7 mps 745 mmHg 87%
    19:00 +9°C° 0.1 mm 7 mps 745 mmHg 87%
    20:00 +9°C° 0.2 mm 7 mps 745 mmHg 88%
    21:00 +10°C° 0.2 mm 7 mps 745 mmHg 88%
    22:00 +10°C° 0.2 mm 7 mps 746 mmHg 88%
    23:00 +10°C° 0 mm 7 mps 746 mmHg 88%

    Tomorrow, 1 June, Monday

    Time Temperature Precipitation Wind Pressure Humidity
    00:00 +11°C° 0 mm 7 mps 746 mmHg 88%
    01:00 +11°C° 0 mm 7 mps 746 mmHg 87%
    02:00 +11°C° 0 mm 7 mps 746 mmHg 88%
    03:00 +10°C° 0 mm 7 mps 746 mmHg 88%
    04:00 +10°C° 0 mm 6 mps 746 mmHg 88%
    05:00 +11°C° 0 mm 7 mps 746 mmHg 85%
    06:00 +12°C° 0 mm 7 mps 746 mmHg 82%
    07:00 +14°C° 0 mm 7 mps 746 mmHg 80%
    08:00 +15°C° 0 mm 8 mps 747 mmHg 73%
    09:00 +17°C° 0 mm 8 mps 747 mmHg 67%
    10:00 +18°C° 0 mm 8 mps 747 mmHg 60%
    11:00 +20°C° 0.1 mm 8 mps 747 mmHg 58%
    12:00 +20°C° 0.1 mm 8 mps 747 mmHg 55%
    13:00 +21°C° 0.1 mm 7 mps 747 mmHg 52%
    14:00 +21°C° 0 mm 7 mps 746 mmHg 53%
    15:00 +21°C° 0 mm 7 mps 746 mmHg 53%
    16:00 +21°C° 0 mm 7 mps 746 mmHg 53%
    17:00 +20°C° 0 mm 6 mps 746 mmHg 59%
    18:00 +17°C° 0 mm 5 mps 746 mmHg 65%
    19:00 +17°C° 0 mm 4 mps 746 mmHg 70%
    20:00 +15°C° 0 mm 4 mps 746 mmHg 70%
    21:00 +14°C° 0 mm 4 mps 747 mmHg 70%
    22:00 +13°C° 0 mm 4 mps 747 mmHg 70%
    23:00 +12°C° 0 mm 4 mps 747 mmHg 72%

    Day after tomorrow, 2 June, Tuesday

    Time Temperature Precipitation Wind Pressure Humidity
    00:00 +12°C° 0 mm 4 mps 747 mmHg 73%
    01:00 +11°C° 0 mm 4 mps 747 mmHg 74%
    02:00 +11°C° 0 mm 4 mps 747 mmHg 77%
    03:00 +10°C° 0 mm 4 mps 747 mmHg 79%
    04:00 +10°C° 0 mm 4 mps 747 mmHg 81%
    05:00 +11°C° 0 mm 4 mps 747 mmHg 74%
    06:00 +12°C° 0 mm 5 mps 747 mmHg 67%
    07:00 +14°C° 0 mm 5 mps 747 mmHg 60%
    08:00 +15°C° 0 mm 5 mps 746 mmHg 57%
    09:00 +16°C° 0 mm 5 mps 746 mmHg 54%
    10:00 +17°C° 0 mm 5 mps 746 mmHg 51%
    11:00 +19°C° 0 mm 5 mps 746 mmHg 50%
    12:00 +19°C° 0 mm 5 mps 745 mmHg 49%
    13:00 +20°C° 0 mm 5 mps 745 mmHg 48%
    14:00 +20°C° 0 mm 5 mps 744 mmHg 49%
    15:00 +20°C° 0 mm 5 mps 744 mmHg 50%
    16:00 +20°C° 0 mm 5 mps 744 mmHg 51%
    17:00 +19°C° 0 mm 4 mps 743 mmHg 57%
    18:00 +18°C° 0 mm 3 mps 743 mmHg 63%
    19:00 +17°C° 0 mm 3 mps 743 mmHg 69%
    20:00 +16°C° 0 mm 2 mps 743 mmHg 73%
    21:00 +14°C° 0 mm 2 mps 743 mmHg 76%
    22:00 +13°C° 0 mm 2 mps 743 mmHg 80%
    23:00 +13°C° 0 mm 2 mps 743 mmHg 81%

    3 June, Wednesday

    Time Temperature Precipitation Wind Pressure Humidity
    00:00 +12°C° 0 mm 2 mps 742 mmHg 82%
    01:00 +12°C° 0 mm 1 mps 742 mmHg 83%
    02:00 +12°C° 0 mm 1 mps 741 mmHg 83%
    03:00 +12°C° 0 mm 1 mps 741 mmHg 83%
    04:00 +11°C° 0 mm 1 mps 741 mmHg 84%
    05:00 +13°C° 0 mm 2 mps 741 mmHg 77%
    06:00 +16°C° 0 mm 2 mps 740 mmHg 70%
    07:00 +18°C° 0 mm 2 mps 740 mmHg 62%
    08:00 +19°C° 0 mm 3 mps 740 mmHg 58%
    09:00 +20°C° 0 mm 4 mps 740 mmHg 54%
    10:00 +22°C° 0 mm 5 mps 740 mmHg 50%
    11:00 +22°C° 0.4 mm 5 mps 740 mmHg 52%
    12:00 +22°C° 0.4 mm 5 mps 739 mmHg 54%
    13:00 +22°C° 0.4 mm 5 mps 739 mmHg 56%
    14:00 +22°C° 0.3 mm 5 mps 739 mmHg 57%
    15:00 +22°C° 0.3 mm 4 mps 739 mmHg 57%
    16:00 +22°C° 0.3 mm 4 mps 739 mmHg 58%
    17:00 +21°C° 0.1 mm 3 mps 739 mmHg 63%
    18:00 +20°C° 0.1 mm 3 mps 739 mmHg 68%
    19:00 +18°C° 0.1 mm 2 mps 739 mmHg 74%
    20:00 +17°C° 0 mm 2 mps 740 mmHg 77%
    21:00 +16°C° 0 mm 1 mps 740 mmHg 80%
    22:00 +15°C° 0 mm 1 mps 741 mmHg 82%
    23:00 +14°C° 0 mm 1 mps 740 mmHg 83%

    4 June, Thursday

    Time Temperature Precipitation Wind Pressure Humidity
    00:00 +14°C° 0 mm 1 mps 740 mmHg 84%
    01:00 +13°C° 0 mm 1 mps 740 mmHg 84%
    02:00 +13°C° 0 mm 1 mps 741 mmHg 84%
    03:00 +13°C° 0 mm 1 mps 741 mmHg 84%
    04:00 +12°C° 0 mm 1 mps 741 mmHg 85%
    05:00 +14°C° 0 mm 1 mps 741 mmHg 79%
    06:00 +16°C° 0 mm 1 mps 741 mmHg 73%
    07:00 +19°C° 0 mm 1 mps 741 mmHg 68%
    08:00 +20°C° 0 mm 1 mps 741 mmHg 63%
    09:00 +22°C° 0 mm 1 mps 741 mmHg 58%
    10:00 +24°C° 0 mm 1 mps 741 mmHg 53%
    11:00 +24°C° 0 mm 2 mps 741 mmHg 51%
    12:00 +25°C° 0 mm 2 mps 741 mmHg 49%
    13:00 +26°C° 0 mm 3 mps 740 mmHg 46%
    14:00 +26°C° 0 mm 3 mps 740 mmHg 48%
    15:00 +26°C° 0 mm 3 mps 740 mmHg 49%
    16:00 +26°C° 0 mm 3 mps 740 mmHg 51%
    17:00 +25°C° 0.1 mm 3 mps 740 mmHg 59%
    18:00 +24°C° 0.1 mm 3 mps 739 mmHg 66%
    19:00 +21°C° 0.1 mm 3 mps 739 mmHg 74%
    20:00 +20°C° 0.6 mm 2 mps 739 mmHg 77%
    21:00 +19°C° 0.6 mm 2 mps 739 mmHg 81%
    22:00 +19°C° 0.6 mm 1 mps 739 mmHg 84%
    23:00 +19°C° 0.1 mm 1 mps 739 mmHg 86%

    5 June, Friday

    Time Temperature Precipitation Wind Pressure Humidity
    00:00 +18°C° 0.1 mm 1 mps 739 mmHg 88%
    01:00 +18°C° 0.1 mm 1 mps 738 mmHg 89%
    02:00 +16°C° 0 mm 1 mps 738 mmHg 90%
    03:00 +16°C° 0 mm 1 mps 738 mmHg 90%
    04:00 +16°C° 0 mm 1 mps 738 mmHg 90%
    05:00 +18°C° 0.1 mm 1 mps 738 mmHg 87%
    06:00 +19°C° 0.1 mm 1 mps 738 mmHg 84%
    07:00 +20°C° 0.1 mm 1 mps 739 mmHg 82%
    08:00 +21°C° 0 mm 1 mps 739 mmHg 78%
    09:00 +22°C° 0 mm 1 mps 739 mmHg 74%
    10:00 +23°C° 0 mm 2 mps 739 mmHg 70%
    11:00 +25°C° 0.2 mm 2 mps 739 mmHg 65%
    12:00 +26°C° 0.2 mm 2 mps 738 mmHg 60%
    13:00 +28°C° 0.2 mm 2 mps 738 mmHg 55%
    14:00 +28°C° 0.3 mm 2 mps 738 mmHg 54%
    15:00 +28°C° 0.3 mm 2 mps 738 mmHg 54%
    16:00 +28°C° 0.3 mm 1 mps 738 mmHg 54%
    17:00 +27°C° 0 mm 1 mps 738 mmHg 60%
    18:00 +26°C° 0 mm 1 mps 738 mmHg 65%
    19:00 +25°C° 0 mm 1 mps 737 mmHg 70%
    20:00 +23°C° 0.1 mm 1 mps 738 mmHg 74%
    21:00 +22°C° 0.1 mm 1 mps 738 mmHg 77%
    22:00 +21°C° 0.1 mm 1 mps 738 mmHg 81%
    23:00 +21°C° 0.1 mm 1 mps 738 mmHg 81%
    Show more